Home > Weather > Martigny > Past weeks

Flag for Switzerland Past Weather in Martigny, Valais, Switzerland — Yesterday and Last 2 Weeks

Now
78 °F

Warm.


Feels Like: 79 °F
Forecast: 58 / 90 °F
Wind: 21 mph from West

Location: Sion

Current Time: Jul 28, 2016 at 8:30:24 PM

Latest Report: Jul 28, 2016 at 7:00 PM


Visibility: N/A

Pressure: 29.92 "Hg

Humidity: 40%

Dew Point: 52 °F

Location of MartignyLocation

Past Weather in Martigny — Graph

°F

Martigny Temperature Yesterday

Maximum temperature yesterday: 87 °F (at 4:00 PM)
Minimum temperature yesterday: 62 °F (at 11:00 PM)
Average temperature yesterday: 72 °F

High & Low Weather Summary for the Past Weeks

 TemperatureHumidityPressure
High94 °F (Jul 20, 5:00 PM)95% (Jul 23, 12:00 AM)30.33 "Hg (Jul 23, 12:00 AM)
Low47 °F (Jul 15, 5:00 AM)25% (Jul 20, 6:00 PM)29.83 "Hg (Jul 21, 6:00 PM)
Average70 °F62%30.06 "Hg
* Reported Jul 13 8:00 PM — Jul 28 7:00 PM, Martigny, Weather by CustomWeather, © 2016

Note: Actual official high and low records may vary slightly from our data, if they occured in-between our weather recording intervals... More about our weather records

Advertising

Martigny Weather History for the Previous 24 Hours

Scroll right to see more
 ConditionsComfort  
Time TempWeatherWind HumidityBarometerVisibility
7:00 PM
Thu, Jul 28
78 °FWarm.21 mph40%29.92 "HgN/A
6:00 PM79 °FWarm.20 mph42%29.90 "HgN/A
5:00 PM82 °FScattered clouds.21 mph38%29.90 "Hg16 mi
4:00 PM82 °FPleasantly warm.21 mph39%29.91 "HgN/A
3:00 PM82 °FPleasantly warm.17 mph38%29.93 "HgN/A
2:00 PM80 °FScattered clouds.13 mph41%29.95 "Hg25 mi
1:00 PM79 °FWarm.7 mph46%29.98 "HgN/A
12:00 PM74 °FMild.3 mph50%30.02 "HgN/A
11:00 AM73 °FPassing clouds.3 mph55%30.04 "Hg25 mi
10:00 AM68 °FMild.2 mph59%30.07 "HgN/A
9:00 AM65 °FMild.1 mph74%30.09 "HgN/A
8:00 AM62 °FCool.No wind81%30.11 "HgN/A
7:00 AM60 °FCool.2 mph82%30.11 "HgN/A
6:00 AM58 °FCool.No wind89%30.11 "HgN/A
5:00 AM58 °FClear.2 mph90%30.12 "Hg16 mi
4:00 AM59 °FCool.No wind90%30.12 "HgN/A
3:00 AM60 °FCool.5 mph86%30.12 "HgN/A
2:00 AM60 °FClear.3 mph87%30.11 "Hg16 mi
1:00 AM60 °FCool.2 mph93%30.10 "HgN/A
12:00 AM62 °FCool.No wind89%30.10 "HgN/A
11:00 PM
Wed, Jul 27
62 °FClear.2 mph90%30.11 "Hg16 mi
10:00 PM64 °FMild.1 mph88%30.10 "HgN/A
9:00 PM67 °FMild.5 mph74%30.06 "HgN/A
8:00 PM68 °FRain. Overcast.2 mph74%30.04 "Hg9 mi
Weather by CustomWeather, © 2016

See weather overviewHow to use our weather pages